FW8363 Weather Reports


Display with metric or nautical units.
time (UTC)temp
F
wind
direction
speed
MPH
gust
MPH
rain 1hr
in
rain 24hr
in
rain mn
in
humidity
%
barometer
mb
20260504175022 -35 24 10.0 14.0 0.00 2.74 1.41 1016.3
20260504172620 -35 24 12.0 15.0 0.00 2.74 1.41 1016.4
20260504171003 -35 16 11.0 14.0 0.00 2.74 1.41 1016.4
20260504151013 -35 21 5.0 10.0 0.00 2.76 1.41 1016.9
20260504141013 -35 334 4.0 8.0 0.00 2.76 1.41 1016.7
20260504081009 -26 324 7.0 10.0 0.28 2.76 1.41 1014.7
20260504044655 -46 165 5.0 11.0 0.05 1.41 0.05 1016.7
20260504043139 -46 155 4.0 10.0 0.04 1.40 0.04 1016.8
20260504035619 -48 163 4.0 9.0 0.02 1.41 1.36 1016.2
20260504034100 -49 182 5.0 8.0 0.04 1.41 1.36 1016.2
20260504025534 -50 147 6.0 14.0 0.06 1.39 1.34 1016.7
20260504024003 -52 128 8.0 12.0 0.04 1.37 1.32 1016.7
20260504014620 -54 151 9.0 18.0 0.00 1.33 1.28 1016.3
20260504013103 -54 124 6.0 10.0 0.00 1.33 1.28 1016.2
20260504011550 -49 152 3.0 7.0 0.00 1.33 1.28 1016.5
20260504005009 -54 86 3.0 6.0 0.00 1.33 1.28 1015.9
20260504003605 -54 68 4.0 6.0 0.00 1.33 1.28 1016.0
20260504001614 -54 64 3.0 6.0 0.00 1.33 1.28 1015.7
20260503235104 -54 84 4.0 9.0 0.00 1.33 1.28 1015.3
20260503233003 -50 95 6.0 9.0 0.00 1.33 1.28 1015.3
20260503231549 -54 99 5.0 8.0 0.00 1.33 1.28 1014.8
20260503225603 -50 99 4.0 8.0 0.00 1.33 1.28 1015.0
20260503223631 -54 76 2.0 5.0 0.00 1.33 1.28 1014.7
20260503221549 -54 59 3.0 6.0 0.00 1.33 1.28 1014.7
20260503215650 -54 62 2.0 5.0 0.00 1.33 1.28 1014.8
20260503213605 -52 27 3.0 7.0 0.00 1.33 1.28 1015.0
20260503211526 -49 75 4.0 8.0 0.00 1.33 1.28 1015.0
20260503205049 -48 70 5.0 8.0 0.18 1.33 1.28 1015.7
20260503203629 -50 97 2.0 6.0 0.26 1.33 1.28 1016.1
20260503201549 -49 18 5.0 11.0 0.32 1.33 1.28 1015.9
20260503195026 -50 201 3.0 7.0 0.37 1.12 1.08 1016.7
20260503193629 -54 45 0.0 8.0 0.31 1.07 1.02 1016.7
20260503191535 -54 176 3.0 15.0 0.25 1.01 0.96 1016.8
20260503185050 -54 125 3.0 11.0 0.60 0.76 0.71 1017.2
20260503183651 -54 12 8.0 11.0 0.68 0.76 0.71 1016.9
20260503183003 -52 23 6.0 11.0 0.68 0.76 0.71 1016.9
20260503181548 -54 32 9.0 15.0 0.68 0.76 0.71 1016.9